Regional Weather Roundup
Issued by NWS

Home | Current Version | Previous Version | Graphics & Text | Print | Product List | Glossary On
Versions: 1 2 3 4 5 6 7 8 9 10 11 12 13 14 15 16 17 18 19 20 21 22 23 24 25 26 27 28
000
ASUS45 KTFX 081710
RWRMT
MONTANA REGIONAL WEATHER ROUNDUP
NATIONAL WEATHER SERVICE GREAT FALLS MT
1000 AM MST THU DEC 08 2016

NOTE: "FAIR" INDICATES FEW OR NO CLOUDS BELOW 12000 FEET WITH NO
SIGNIFICANT WEATHER AND/OR OBSTRUCTIONS TO VISIBILITY.

MTZ001>007-043-081800-
WEST OF THE DIVIDE

CITY           SKY/WX    TMP DP  RH WIND       PRES   REMARKS
KALISPELL      PTSUNNY    5  -6  60 N12       30.42S WCI -11
MISSOULA       SUNNY      9   0  67 SE12      30.37F WCI  -6
BUTTE          CLOUDY     0  -6  76 CALM      30.21F
MULLAN PASS    CLOUDY     0  -4  83 VRB7      30.05S FOG     WCI -13
ANACONDA         N/A      1  -8  66 SW6       30.24S WCI -10
DEER LODGE       N/A      3  -4  72 CALM      30.28F
EUREKA           N/A     -6 -11  77 CALM      30.50F
HAMILTON         N/A      7   0  72 S7        30.33S WCI  -5
LIBBY            N/A      9   3  78 CALM      30.44S
PLAINS           N/A     17   5  59 NE6       30.38S WCI   9
RONAN            N/A     12   6  77 N10       30.36S WCI  -1
THOMPSON FALLS   N/A     13   7  77 SW2       30.40F
$$

MTZ008-052>055-081800-
SOUTHWEST MONTANA

CITY           SKY/WX    TMP DP  RH WIND       PRES   REMARKS
BOZEMAN        SUNNY      2  -5  72 CALM      30.35S
DILLON         CLOUDY    -1  -7  75 S8        30.24F WCI -15
W YELLOWSTONE  CLOUDY    -6 -11  77 CALM      30.21F
ENNIS          SUNNY      9  -2  61 SE7       30.28S WCI  -3
$$

MTZ009-010-012-014-046-048-049-054-081800-
EAST SLOPES AND CENTRAL MONTANA

CITY           SKY/WX    TMP DP  RH WIND       PRES   REMARKS
CUT BANK       CLOUDY    -4 -10  75 N3        30.46S HAZE
GREAT FALLS    CLOUDY    -1  -8  72 N5        30.48R
MALMSTROM AFB  FLURRIES  -2  -6  83 N3        30.51S
HELENA         CLOUDY     4  -3  73 NW3       30.41R
AUGUSTA        LGT SNOW  -5  -9  82 NE2       30.39S
BOWMANS CRNR   FLURRIES  -7 -10  85 NE7       30.38R WCI -21
CHOTEAU          N/A     -2  -9  71 MISG      30.47S
CONRAD           N/A     -3  -8  79 NW5       30.45S
FAIRFIELD      PTSUNNY   -4 -10  75 N2        30.45S
POWER          CLOUDY    -4 -10  78 N6        30.46S WCI -17
RAYNESFORD     FLURRIES  -3  -7  82 NW6       30.43S WCI -15
ULM            FLURRIES  -3  -7  80 N9        30.49R WCI -18
$$

MTZ011-013-016-021-045-047-050-051-081800-
NORTH CENTRAL MONTANA

CITY           SKY/WX    TMP DP  RH WIND       PRES   REMARKS
HAVRE          SUNNY     -5  -9  83 W5        30.63S
LEWISTOWN      CLOUDY    -2  -7  79 NW5       30.41F
N BAR RANCH    PTSUNNY    1  -9  60 CALM      30.40F
CHINOOK          N/A     -6 -11  77 CALM      30.67S
DENTON         CLOUDY    -2  -7  80 W8        30.46S WCI -17
GEYSER         FLURRIES  -3  -6  84 E6        30.42S WCI -15
GRASS RANGE    PTSUNNY   -2  -6  82 NE3       30.43S
JUDITH GAP     FLURRIES  -3  -7  83 S14       30.36S WCI -22
ROY            PTSUNNY   -3  -6  86 MISG      30.48F
STANFORD       CLOUDY    -4  -7  87 N2        30.39R
WINIFRED       PTSUNNY   -2  -6  81 MISG      30.47S
$$

MTZ017>020-022>027-061-062-081800-
NORTHEAST MONTANA

CITY           SKY/WX    TMP DP  RH WIND       PRES   REMARKS
GLASGOW        SUNNY     -1  -9  68 NW5       30.65F
JORDAN           N/A     -2  -7  79 W5        30.63S
SIDNEY         CLOUDY     1  -5  75 NW10      30.69S WCI -15
WOLF POINT     SUNNY      1  -7  68 W7        30.70S WCI -12
PLENTYWOOD       N/A     -8 -13  77 W9        30.64R WCI -25
POPLAR           N/A      0  -9  65 W7        30.70R WCI -13
SCOBEY           N/A     -6 -17  59 NW6       30.56S WCI -19
$$

MTZ028>42-056>058-081800-
SOUTHCENTRAL AND SOUTHEAST MONTANA

CITY           SKY/WX    TMP DP  RH WIND       PRES   REMARKS
BAKER          CLOUDY    -3  -7  82 W9        30.59S FOG     WCI -19
BILLINGS       MOSUNNY    1  -5  75 NE6       30.49S WCI -10
LIVINGSTON     SUNNY     -3  -8  79 E7        30.35S WCI -16
MILES CITY     SUNNY      0  -7  72 CALM      30.64S
BIG TIMBER     CLOUDY    -4  -8  84 SE3       30.41F
EKALAKA          N/A     -4 -12  68 W3        30.44R
FORSYTH          N/A      1  -4  78 CALM      30.62S
HARLOWTON      CLOUDY    -1  -5  83 SE3       30.41R
LAUREL           N/A      3  -9  57 N7        30.41S WCI  -9
ROUNDUP          N/A      2 -10  57 NE5       30.38S
$$

REGIONAL REPORTS...DAKOTAS

CITY           SKY/WX    TMP DP  RH WIND       PRES   REMARKS
WILLISTON      CLOUDY    -2  -9  72 W9        30.69S WCI -18
MINOT          SUNNY     -1  -7  75 W18       30.62S WCI -22
DICKINSON      CLOUDY    -3  -8  79 W17       30.57S WCI -24
BEACH          CLOUDY     0  -6  78 NW14      30.63S WCI -19
CROSBY         CLOUDY    -2  -8  78 W12       30.66S WCI -20
TIOGA            N/A     -2  -6  84 NW14G21   30.62S WCI -21
WATFORD CITY   CLOUDY    -2  -8  78 W7        30.67R WCI -16
BISMARCK       CLOUDY     3  -3  76 W13       30.67R HAZE    WCI -14
GRAND FORKS    LGT SNOW  16  11  80 NW21      30.52R BLWGSNOWWCI  -1
FARGO          LGT SNOW  16   9  74 NW20      30.52R WCI  -1
BUFFALO SD       N/A      1  -6  72 NW16      30.49R WCI -19
RAPID CITY     SUNNY      6  -3  66 SE6       30.58S WCI  -4
$$

REGIONAL REPORTS...WYOMING/IDAHO/WASHINGTON

CITY           SKY/WX    TMP DP  RH WIND       PRES   REMARKS
GILLETTE       SUNNY     -1  -6  79 CALM      30.45S
SHERIDAN       SUNNY     -1  -8  72 CALM      30.46F
BUFFALO WY     SUNNY      4  -9  55 S6        30.37F WCI  -7
CODY           CLOUDY     0  -4  83 S6        30.33F WCI -12
YELLOWSTONE LA   N/A      0  -3  87 VRB3      30.14S
IDAHO FALLS    CLOUDY    11   3  70 CALM      30.27F
SALMON         CLOUDY     0  -2  92 CALM      30.34S
BOISE          CLOUDY    20  10  65 SE9       30.24S WCI   9
SPOKANE        MOSUNNY   16   4  59 NE10      30.27F WCI   4
$$

REGIONAL REPORTS...ALBERTA

CITY           SKY/WX    TMP DP  RH WIND       PRES   REMARKS
EDMONTON       CLOUDY    -8 -15  71 CALM      30.69S
CALGARY        CRYSTALS  -9 -15  77 SW3       30.49F
LETHBRIDGE     PTSUNNY  -13 -18  77 W6        30.58S WCI -27
MEDICINE HAT   PTSUNNY  -13 -18  77 SW6       30.67S WCI -27
WATERTON GATE    N/A    -20 -27  69 CALM        N/A
CARDSTON         N/A     -8 -15  71 SW1         N/A
MILK RIVER       N/A     -4  -9  77 NW5         N/A
ONEFOUR          N/A    -11 -15  84 W9          N/A  WCI -29
$$

REGIONAL REPORTS...SASKATCHEWAN

CITY           SKY/WX    TMP DP  RH WIND       PRES   REMARKS
SWIFT CURRENT  FLURRIES  -8 -11  84 W13       30.58S WCI -28
REGINA         FLURRIES  -2  -8  78 NW15      30.64R WCI -22
SASKATOON      CRYSTALS  -6 -11  77 NW9       30.70S WCI -22
CYPRESS HILLS    N/A    -11 -17  77 NW2         N/A
VAL MARIE        N/A     -6 -11  77 NW1         N/A
ROCKGLEN         N/A     -6 -11  77 NW10        N/A  WCI -23
ASSINIBOIA       N/A     -8 -11  84 CALM        N/A
$$




USA.gov is the U.S. government's official web portal to all federal, state and local government web resources and services.